Weather Roundup
Issued by NWS Chicago, IL

Home | Current Version | Previous Version | Graphics & Text | Print | Product List | Glossary On
Versions: 1 2 3 4 5 6 7 8 9 10 11 12 13 14 15 16 17 18 19 20 21 22 23 24 25 26 27 28 29 30 31 32 33 34 35 36 37 38 39 40 41 42 43 44 45 46 47 48 49 50
000
NZUS59 KLOT 181210
HRRLOT

CHICAGO AREA WEATHER ROUNDUP
NATIONAL WEATHER SERVICE CHICAGO/ROMEOVILLE IL
700 AM CDT FRI APR 18 2014

NOTE: "FAIR" INDICATES FEW OR NO CLOUDS BELOW 12,000 FEET WITH NO
SIGNIFICANT WEATHER AND/OR OBSTRUCTIONS TO VISIBILITY.

* THESE STATIONS ARE NOT UNDER NWS QUALITY CONTROL. THEY ALSO MAY NOT
  REPORT WEATHER SUCH AS PRECIPITATION OR FOG.

ILZ005-006-012>014-019>023-181300-
NORTHEAST ILLINOIS

CITY           SKY/WX    TMP DP  RH WIND       PRES   REMARKS
OHARE          PTCLDY    41  33  73 N5        30.30R
6HR MIN TEMP:  40; 6HR MAX TEMP:  48;

MIDWAY         PTCLDY    43  37  79 N7        30.30R
6HR MIN TEMP:  42; 6HR MAX TEMP:  50;

AURORA         CLEAR     34  32  92 NW6       30.31R FOG     WCI  29
6HR MIN TEMP:  31; 6HR MAX TEMP:  45;

LANSING*       PTCLDY    42  36  79 N3        30.30R
JOLIET*        PTCLDY    41  37  85 N3        30.31R
WAUKEGAN       CLEAR     36  32  85 NW5       30.30R FOG
6HR MIN TEMP:  36; 6HR MAX TEMP:  42;

DUPAGE AIRPORT CLEAR     36  33  89 N7        30.30R FOG
6HR MIN TEMP:  33; 6HR MAX TEMP:  48;

WHEELING       CLEAR     41  34  76 N5        30.31R
6HR MIN TEMP:  39; 6HR MAX TEMP:  46;

KANKAKEE*      CLOUDY    43  40  90 W3        30.30S
MORRIS*        CLEAR     37  35  91 NW5       30.30R FOG
LEWIS AIRPORT* CLEAR     41  37  86 NE6       30.30R FOG
NORTHERLY IS     N/A     41  37  86 N10         N/A
$$

WIZ051-052-058>065-066-070>072-181300-
SOUTHEAST WISCONSIN

CITY           SKY/WX    TMP DP  RH WIND       PRES   REMARKS
MILWAUKEE      PTCLDY    38  31  76 N7        30.33R
6HR MIN TEMP:  36; 6HR MAX TEMP:  43;

KENOSHA*       CLEAR     36  32  85 N5        30.31R
RACINE*        CLEAR     38  33  82 N10       30.32R
BURLINGTON     CLEAR     33  31  94 N5        30.32R WCI  28
WAUKESHA       MOCLDY    34  30  86 CALM      30.33R
WEST BEND      CLOUDY    34  30  86 N6        30.32R WCI  29
$$

INZ001>003-010>013-019-020-181300-
NORTHWEST INDIANA

CITY           SKY/WX    TMP DP  RH WIND       PRES   REMARKS
GARY*          PTCLDY    41  37  87 N6        30.30R HAZE
MICHIGAN CITY* NOT AVBL
RENSSELAER*    NOT AVBL
VALPARAISO     MOCLDY    45  40  82 N6        30.29R
$$

LMZ740>746-181300-
SOUTHERN LAKE MICHIGAN

STATION/POSITION TIME  SKY/WX   TEMP WIND        PRES    VSBY
                                AIR  DIR/SP/G
                 (UTC)          (F)  (DEG/KT/KT) (MB)    (MI)
HARRISON CRIB    1200            40  350/ 12/ 13   N/A
BURNHAM HARBOR   1200            42  340/  7/ 13   N/A
CALUMET HARBOR   1200            41  340/  9/ 11 1026.7R
BURNS HARBOR     NOT AVBL
MICHIGAN CITY    1200            40   10/  5/  6   N/A
$$

ABBREVIATIONS USED IN REMARKS
   TC - TEMPERATURE IN CELSIUS
  WCI - WIND CHILL INDEX
   HX - HEAT INDEX
  VSB - VISIBILITY
$$


USA.gov is the U.S. government's official web portal to all federal, state and local government web resources and services.